Regional Weather Roundup
Issued by NWS Goodland, KS

Home | Current Version | Previous Version | Graphics & Text | Print | Product List | Glossary On
Versions: 1 2 3 4 5 6 7 8 9 10 11 12 13 14 15 16 17 18 19 20 21 22 23 24 25 26 27 28 29 30 31 32 33 34 35 36 37 38 39 40 41 42 43 44 45 46 47 48 49 50
209
ASUS43 KGLD 291259
RWRGLD

GOODLAND FORECAST AREA HOURLY WEATHER ROUNDUP
NATIONAL WEATHER SERVICE GOODLAND KS
700 AM MDT THU JUN 29 2017

...OFFICIAL OBSERVATIONS...

CITY           SKY/WX    TMP DP  RH WIND       PRES   REMARKS
GOODLAND KS    SUNNY     64  58  80 NW3       29.85R
HILL CITY KS   CLOUDY    65  63  93 E17G26    29.79R
IMPERIAL NEB   SUNNY     64  55  72 S5        29.81R
MCCOOK NEB     MOSUNNY   68  59  73 NE8       29.75S
AKRON CO       SUNNY     60  51  72 SW6       29.93R
BURLINGTON CO  SUNNY     61  58  90 W3        29.89R
LIMON CO       SUNNY     55  52  89 NE3       29.96R
$$

...UNOFFICIAL OBSERVATIONS...

CITY           SKY/WX    TMP DP  RH WIND       PRES   REMARKS
NORTON KS      SUNNY     66  57  72 E14       29.79
SHARON SPRINGS   N/A     61  58  88 CALM        N/A
KIT CARSON CO    N/A     61  55  81 CALM        N/A
YUMA CO        FAIR      59  54  82 S3        29.89R
$$




USA.gov is the U.S. government's official web portal to all federal, state and local government web resources and services.